User: anonymous   Login
Location: Edinburgh
(55.9500°N, 3.1600°W)
Time: 17:46:52
(UTC+01:00)
Language:

First-Move - Orbit

View from above orbital plane
View from above orbital plane
View from above satellite
View from above satellite

Ground track
Ground track

The orbit data is extracted from the following two-line orbital elements,

1 39439U 13066Z   19111.55636995  .00000373  00000-0  52136-4 0  9999
2 39439  97.5740 128.0356 0064335 224.4180 135.1865 14.81779134292332
Epoch (UTC): 21 April 2019 13:21:10
Eccentricity: 0.0064335
inclination: 97.5740°
perigee height: 578 km
apogee height: 669 km
right ascension of ascending node: 128.0356°
argument of perigee: 224.4180°
revolutions per day: 14.81779134
mean anomaly at epoch: 135.1865°
orbit number at epoch: 29233

The dashed part of the orbit path shows where the satellite is in the earth's shadow,  

DLR